sat.trackr.live / text

‹ back to catalog

STARLINK-3107

NORAD 49171 · 2021-082AT

PAYLOAD ACTIVE UNKNOWN

§ Identity

Operator
Country
US
Launch date
2021-09-14
Launch site
AFWTR
Launch vehicle
Mass (kg)
RCS (m²)

Purposes: comms

External: N2YO · Heavens-Above · Gunter

§ Orbital elements

Epoch: 2026-09-03T19:52:49.359648Z

Period
94.93 min
Inclination
69.9950°
Eccentricity
0.0006919
Mean motion
15.16878752 rev/d
Perigee alt
510.5 km
Apogee alt
520.1 km
Semi-major
6,893.4 km
B*
2.8196e-4
RAAN
187.5349°
Arg perigee
289.4798°
Mean anomaly
70.5622°
Rev number
27,426

§ Raw data

STARLINK-31071 49171U 21082AT  26246.82834907  .00005460  00000+0  28196-3 0  99992 49171  69.9950 187.5349 0006919 289.4798  70.5622 15.16878752274264

JSON: /api/v1/satellites/49171 · /tle

For live sub-satellite position, see the globe view (requires WebGL).

§ Visibility from observer

Set your observer location to see the next 7 days of passes ≥ 10°. The values pass through the URL so the page stays shareable.

No JS? Fill the form by hand. The geolocation button needs JavaScript.